Hourly Data Report for January 18, 2022

TORONTO CITY
ONTARIO
Current Station Operator: ECCC - MSC

43°40'00.000" N
79°24'00.000" W
112.50 m
6158355
71508
XTO

Download Data

Hourly Data (January 2022)
Hourly Data Report for January 18, 2022
TIME
LST
Temp Definition
°C
Dew Point Definition
°C
Rel Hum Definition
%
Precip. Amount Definition
mm

Wind Dir Definition
10's deg

Wind Spd Definition
km/h
Visibility Definition
km
Stn Press Definition
kPa
Hmdx Definition


Wind Chill Definition


Weather Definition


00:00 -2.7 -7.3 70 0.0       99.06     LegendNANA
01:00 -2.8 -8.6 64 0.0       99.11     LegendNANA
02:00 -3.2 -9.7 61 0.0       99.22     LegendNANA
03:00 -4.0 -10.1 63 0.0       99.37     LegendNANA
04:00 -4.6 -9.4 69 0.0       99.43     LegendNANA
05:00 -5.3 -10.0 70 0.0       99.56     LegendNANA
06:00 -6.9 -11.3 71 0.0       99.70     LegendNANA
07:00 -7.4 -11.1 75 0.0       99.87     LegendNANA
08:00 -8.6 -12.3 75 0.0       100.03     LegendNANA
09:00 -9.2 -13.8 69 0.0       100.18     LegendNANA
10:00 -9.8 -15.6 63 0.0       100.31     LegendNANA
11:00 -9.6 -15.9 60 0.0       100.42     LegendNANA
12:00 -8.7 -15.2 59 0.0       100.42     LegendNANA
13:00 -7.6 -14.6 57 0.0       100.40     LegendNANA
14:00 -6.8 -14.6 54 0.0       100.39     LegendNANA
15:00 -6.6 -13.3 59 0.0       100.37     LegendNANA
16:00 -5.9 -11.9 62 0.0       100.39     LegendNANA
17:00 -6.3 -11.0 69 0.0       100.36     LegendNANA
18:00 -6.7 -10.3 75 0.0       100.31     LegendNANA
19:00 -5.3 -8.3 79 0.0       100.29     LegendNANA
20:00 -4.1 -7.7 76 0.0       100.22     LegendNANA
21:00 -3.4 -6.8 77 0.0       100.13     LegendNANA
22:00 -3.1 -4.7 89 0.3       99.97     LegendNANA
23:00 -1.6 -2.6 93 0.6       99.77     LegendNANA

Notes on Data Quality.

Legend

  • E = Estimated
  • M = Missing
  • NA = Not Available*
  • [empty] = Indicates an unobserved value
Date modified: